Main page
METAR-TAF:

METAR-TAF

Airports :

Mallam Aminu Kano International Airport

Kano, Nigeria

latitude: 12-03N, longitude: 008-32E, elevation: 476 m

Current weather observation

The report was made 46 minutes ago, at 00:00 UTC
Wind 5 kt from the North/Northeast
Temperature 24°C
Humidity 27%
Pressure 1013 hPa
Visibility 10 km or more
no clouds below 1500 m and no cumulonimbus

METAR: DNKN 210000Z 03005KT CAVOK 24/04 Q1013 NOSIG

Time: 01:46 (00:46 UTC)

Forecast

The report was made 1 hour and 46 minutes ago, at 23:00 UTC
Forecast valid from 21 at 00 UTC to 22 at 06 UTC
Wind 4 kt from the North/Northeast
Visibility 10 km or more
no clouds below 1500 m and no cumulonimbus

TAF: DNKN 202300Z 2100/2206 03004KT CAVOK

Weather observations and forecasts of more than 4000 airports (METAR and TAF reports).

The available stations are represented by yellow and red dots on the map.

Hover mouse over dot to see the name of the station.

Then click to see weather observations and forecasts.

To change the map : click on the green buttons with a black cross to zoom in, on the green button with a dash to zoom out, or on the green arrows for adjacent maps.


METAR-TAF: